Find Avion-Kaluga 650

NORAD ID: 57195 Int'l Des: 2023-091 Owner: MGU Country: RU operational
LEOCIRCULARRETROGRADESSO

リアルタイム位置

3D地球を読み込み中...

Avion-Kaluga 650について

説明を読み込み中...

次回通過

Passes for default location (London). Set your location on the main map for personalized predictions.

高度履歴

Loading altitude history...

軌道要素

1 57195U 23091AF 26105.95191789 .00002845 00000-0 13640-3 0 9991
2 57195 97.5146 165.7942 0009514 335.3428 24.7351 15.19704007154570
Epoch: Apr 15, 2026 • Age: 7 hours

現在のステータス

高度 517.9 km
速度 7.60 km/s
衛星直下点 34.48°N, 59.79°E
打ち上げ日 Jun 27, 2023
運用期間 2.8 years
タイプ other

技術仕様

分類 Payload
質量 5.00 kg
乾燥質量 5.00 kg
総質量 5.00 kg
長さ 0.30 m
直径 0.10 m
スパン 0.30 m
形状 Box
製造者 DOSAAN
バスタイプ Cubesat 3U
フェーズステータス In Orbit
所有者/国 MGU/RU

Most Searched